Long Beach, CA

1:00 AM PDT on March 28, 2017 (GMT -0700)
Long Beach

Weather History for KLGB - August, 2013

Change the Weather History Date:

Thursday, August 8, 2013

  Actual Average Record
Temperature  
Mean Temperature 70 °F 74 °F  
Max Temperature 78 °F 83 °F 97 °F (1971)
Min Temperature 61 °F 65 °F 59 °F (1962)
Degree Days  
Heating Degree Days 0 0  
Month to date heating degree days 0 0  
Since 1 June heating degree days 0 6  
Since 1 July heating degree days 0 0  
Cooling Degree Days 5 9  
Month to date cooling degree days 46 72  
Year to date cooling degree days 599 550  
Since 1 June cooling degree days 450 447  
Growing Degree Days 20 (Base 50)    
Moisture  
Dew Point 56 °F    
Average Humidity 67    
Maximum Humidity 84    
Minimum Humidity 50    
Precipitation  
Precipitation 0.00 in 0.00 in 0.00 in (2017)
Month to date precipitation 0.00 0.01  
Year to date precipitation 2.94 8.48  
Since 1 July precipitation 0.07  
Sea Level Pressure  
Sea Level Pressure 29.96 in    
Wind  
Wind Speed 5 mph (WSW)    
Max Wind Speed 14 mph    
Max Gust Speed 16 mph    
Visibility 10 miles    
Events      
T = Trace of Precipitation, MM = Missing Value Source: NWS Daily Summary

Daily Weather History Graph

Daily Weather History Graph

Search for Another Location

Airport or City:

Trip Planner

Search our weather history database for the weather conditions in past years. The results will help you decide how hot, cold, wet, or windy it might be!

Date:

Astronomy

Aug. 08, 2013 Rise Set
Actual Time 6:09 AM PDT 7:46 PM PDT
Civil Twilight 5:42 AM PDT 8:12 PM PDT
Nautical Twilight 5:10 AM PDT 8:45 PM PDT
Astronomical Twilight 4:36 AM PDT 9:18 PM PDT
Moon 7:53 AM PDT (8/8) 8:36 PM PDT (8/8)
Length of Visible Light 14h 30m
Length of Day
13h 36m
Waxing Crescent, 3% of the Moon is Illuminated
Aug 8
Waxing Crescent
Aug 14
First Quarter
Aug 20
Full
Aug 28
Last Quarter
Sep 5
New

Hourly Weather History & Observations

Time (PDT) Temp. Dew Point Humidity Pressure Visibility Wind Dir Wind Speed Gust Speed Precip Events Conditions
12:53 AM 64.0 °F 57.0 °F 78% 29.99 in 10.0 mi NW 4.6 mph - N/A   Clear
1:53 AM 63.0 °F 55.9 °F 78% 29.97 in 10.0 mi NW 3.5 mph - N/A   Clear
2:53 AM 63.0 °F 55.9 °F 78% 29.97 in 10.0 mi NW 3.5 mph - N/A   Clear
3:53 AM 63.0 °F 55.9 °F 78% 29.96 in 10.0 mi Calm Calm - N/A   Clear
4:53 AM 61.0 °F 55.9 °F 83% 29.96 in 10.0 mi Calm Calm - N/A   Clear
5:53 AM 62.1 °F 55.9 °F 80% 29.97 in 10.0 mi Calm Calm - N/A   Clear
6:10 AM 62.6 °F 55.4 °F 77% 29.98 in 10.0 mi Calm Calm - N/A   Scattered Clouds
6:53 AM 63.0 °F 57.0 °F 81% 29.99 in 10.0 mi Calm Calm - N/A   Overcast
7:00 AM 62.6 °F 57.2 °F 82% 29.99 in 10.0 mi Calm Calm - N/A   Mostly Cloudy
7:53 AM 64.0 °F 57.0 °F 78% 30.00 in 8.0 mi Calm Calm - N/A   Mostly Cloudy
8:53 AM 64.9 °F 55.9 °F 73% 30.00 in 10.0 mi South 3.5 mph - N/A   Overcast
9:40 AM 66.2 °F 55.4 °F 68% 30.00 in 9.0 mi South 3.5 mph - N/A   Partly Cloudy
9:53 AM 68.0 °F 57.0 °F 68% 30.00 in 10.0 mi South 4.6 mph - N/A   Partly Cloudy
10:53 AM 70.0 °F 57.0 °F 63% 30.00 in 10.0 mi South 8.1 mph - N/A   Clear
11:53 AM 71.1 °F 57.0 °F 61% 29.99 in 10.0 mi South 6.9 mph - N/A   Clear
12:53 PM 72.0 °F 55.9 °F 57% 29.98 in 10.0 mi South 9.2 mph - N/A   Clear
1:53 PM 73.0 °F 57.0 °F 57% 29.97 in 10.0 mi SSW 10.4 mph - N/A   Clear
2:53 PM 73.9 °F 57.0 °F 55% 29.95 in 10.0 mi South 6.9 mph - N/A   Clear
3:53 PM 75.0 °F 55.9 °F 51% 29.93 in 10.0 mi South 9.2 mph - N/A   Clear
4:53 PM 75.9 °F 55.9 °F 50% 29.92 in 10.0 mi NW 10.4 mph - N/A   Clear
5:53 PM 75.0 °F 55.9 °F 51% 29.91 in 10.0 mi WNW 8.1 mph - N/A   Clear
6:53 PM 72.0 °F 55.9 °F 57% 29.91 in 10.0 mi WNW 9.2 mph - N/A   Clear
7:53 PM 68.0 °F 55.0 °F 63% 29.91 in 10.0 mi WNW 12.7 mph - N/A   Clear
8:53 PM 66.9 °F 57.0 °F 70% 29.92 in 10.0 mi NW 8.1 mph - N/A   Clear
9:53 PM 66.0 °F 57.0 °F 73% 29.94 in 10.0 mi NW 4.6 mph - N/A   Clear
10:53 PM 64.9 °F 57.0 °F 75% 29.94 in 10.0 mi NW 4.6 mph - N/A   Clear
11:53 PM 64.9 °F 55.9 °F 73% 29.93 in 10.0 mi Calm Calm - N/A   Clear